sat.trackr.live / text

‹ back to catalog

TIANYI F

NORAD 64053 · 2025-103F

PAYLOAD ACTIVE UNKNOWN

§ Identity

Operator
Country
PRC
Launch date
2025-05-17
Launch site
JSC
Launch vehicle
Mass (kg)
RCS (m²)

External: N2YO · Heavens-Above · Gunter

§ Orbital elements

Epoch: 2026-09-21T23:26:48.233760Z

Period
94.76 min
Inclination
97.3725°
Eccentricity
0.0003300
Mean motion
15.19576482 rev/d
Perigee alt
504.8 km
Apogee alt
509.4 km
Semi-major
6,885.3 km
B*
1.0232e-4
RAAN
334.2223°
Arg perigee
161.1377°
Mean anomaly
198.9981°
Rev number
7,474

§ Raw data

TIANYI F1 64053U 25103F   26264.97694715  .00002110  00000+0  10232-3 0  99912 64053  97.3725 334.2223 0003300 161.1377 198.9981 15.19576482 74749

JSON: /api/v1/satellites/64053 · /tle

For live sub-satellite position, see the globe view (requires WebGL).

§ Visibility from observer

Set your observer location to see the next 7 days of passes ≥ 10°. The values pass through the URL so the page stays shareable.

No JS? Fill the form by hand. The geolocation button needs JavaScript.